Temp
-2 -2 -2 -2 -2 -2 -2 -2 -2 -2 -2 -2 -2 -2 -2 -2 -2 -2 -3 -4 -4 -4 -5 -6 -7 -7 -7 -7 -6 -6 -6 -7 -7 -8 -8 -7 -7 -7 -7 -7 -7 -6 -6 -6 -7
-2 -2 -2 -2 -2 -2 -2 -2 -2 -2 -2 -2 -2 -2 -2 -2 -2 -2 -3 -3 -4 -4 -4 -6 -6 -7 -7 -7 -7 -6 -6 -7 -7 -7 -8 -7 -6 -7 -6 -7 -8 -7 -7 -7 -7
-3 -3 -2 -2 -2 -2 -2 -2 -2 -2 -2 -2 -2 -2 -2 -2 -2 -2 -3 -3 -3 -4 -4 -5 -5 -6 -7 -7 -7 -6 -7 -8 -8 -8 -8 -8 -7 -7 -6 -7 -7 -7 -6 -7 -7
-3 -3 -3 -3 -3 -3 -3 -3 -3 -3 -3 -2 -2 -2 -2 -2 -3 -3 -3 -3 -3 -4 -4 -5 -5 -5 -7 -7 -7 -6 -7 -8 -8 -8 -8 -8 -7 -7 -6 -5 -6 -7 -6 -7 -7
-3 -3 -3 -3 -3 -3 -3 -3 -3 -3 -3 -3 -3 -3 -2 -2 -3 -3 -4 -4 -3 -4 -4 -4 -4 -5 -5 -7 -6 -6 -5 -6 -8 -8 -8 -7 -7 -8 -7 -6 -7 -7 -7 -7 -7
-3 -3 -3 -4 -4 -4 -4 -4 -4 -4 -3 -3 -3 -3 -2 -3 -3 -3 -4 -4 -4 -4 -4 -4 -5 -5 -5 -5 -4 -5 -4 -4 -6 -6 -7 -7 -8 -8 -7 -7 -7 -7 -7 -6 -7
-3 -3 -3 -4 -4 -4 -4 -4 -4 -4 -4 -4 -3 -3 -3 -4 -4 -4 -4 -4 -4 -5 -5 -4 -5 -5 -5 -5 -5 -6 -5 -4 -5 -6 -7 -7 -7 -7 -8 -7 -7 -6 -7 -7 -7
-3 -3 -3 -3 -3 -4 -4 -3 -3 -3 -3 -3 -3 -3 -2 -5 -4 -4 -5 -5 -5 -5 -5 -6 -5 -4 -5 -5 -5 -5 -5 -6 -6 -7 -7 -7 -7 -7 -7 -7 -7 -6 -7 -7 -7
-3 -3 -3 -3 -3 -4 -4 -4 -3 -3 -3 -3 -3 -3 -2 -4 -5 -6 -6 -6 -6 -6 -6 -6 -6 -5 -5 -5 -6 -6 -5 -6 -7 -7 -7 -7 -8 -7 -7 -7 -7 -7 -6 -5 -7
-3 -4 -4 -3 -3 -4 -4 -3 -4 -3 -3 -3 -3 -3 -3 -4 -5 -5 -5 -7 -7 -8 -7 -7 -6 -6 -5 -4 -5 -6 -5 -7 -7 -7 -7 -7 -8 -7 -7 -7 -7 -7 -7 -6 -7
-4 -4 -4 -4 -4 -4 -4 -4 -4 -3 -3 -3 -4 -4 -4 -4 -5 -6 -7 -7 -9 -9 -6 -8 -7 -5 -6 -6 -6 -6 -6 -7 -7 -7 -7 -8 -7 -7 -7 -8 -7 -7 -7 -7 -7
-4 -4 -4 -4 -4 -4 -4 -4 -3 -3 -3 -6 -3 -3 -4 -5 -4 -6 -9 -8 -8 -8 -9 -9 -7 -7 -7 -7 -7 -6 -6 -7 -7 -7 -8 -7 -8 -8 -8 -7 -7 -7 -7 -7 -6
-4 -4 -4 -4 -4 -4 -4 -4 -4 -3 -3 -4 -4 -4 -4 -5 -5 -7 -9 -10 -10 -9 -9 -10 -7 -9 -8 -7 -7 -7 -7 -7 -6 -7 -8 -8 -7 -7 -7 -7 -7 -7 -7 -7 -7
-4 -4 -4 -4 -4 -4 -4 -4 -4 -4 -4 -5 -5 -7 -6 -6 -5 -9 -11 -11 -11 -10 -10 -10 -9 -9 -9 -9 -8 -8 -8 -8 -7 -8 -7 -8 -7 -7 -7 -7 -7 -6 -7 -7 -7
-4 -4 -4 -5 -4 -4 -4 -4 -4 -5 -5 -7 -7 -7 -10 -11 -10 -10 -11 -12 -12 -11 -10 -10 -10 -9 -9 -8 -9 -8 -9 -9 -9 -9 -7 -7 -7 -5 -6 -6 -7 -6 -6 -7 -7
-5 -5 -5 -5 -5 -4 -5 -5 -6 -6 -7 -8 -9 -11 -12 -11 -11 -10 -11 -12 -12 -11 -11 -11 -11 -11 -10 -9 -10 -9 -9 -9 -9 -9 -8 -7 -7 -5 -6 -6 -6 -6 -6 -7 -7
-5 -5 -5 -5 -5 -5 -5 -6 -6 -6 -8 -9 -11 -12 -12 -11 -12 -11 -11 -12 -12 -11 -11 -11 -10 -10 -10 -10 -10 -10 -9 -9 -9 -9 -7 -7 -8 -7 -7 -7 -7 -7 -7 -7 -7
-5 -5 -5 -5 -5 -5 -6 -7 -7 -7 -9 -11 -11 -12 -12 -11 -12 -12 -12 -12 -12 -12 -11 -11 -11 -10 -10 -10 -10 -10 -9 -9 -9 -9 -8 -8 -8 -7 -7 -7 -7 -7 -7 -7 -7
-6 -6 -5 -5 -6 -6 -7 -7 -7 -9 -10 -11 -12 -12 -13 -12 -13 -13 -13 -12 -11 -12 -12 -11 -10 -11 -11 -10 -10 -9 -10 -10 -9 -9 -9 -7 -8 -7 -7 -7 -7 -7 -7 -7 -7
-6 -6 -6 -6 -6 -7 -7 -7 -8 -10 -12 -11 -12 -12 -12 -12 -13 -13 -13 -12 -12 -12 -13 -12 -12 -11 -11 -10 -10 -10 -10 -10 -10 -9 -9 -7 -8 -7 -8 -7 -7 -7 -7 -7 -7
-7 -7 -7 -7 -8 -8 -8 -8 -10 -11 -12 -12 -12 -12 -12 -12 -13 -13 -12 -12 -13 -13 -13 -12 -12 -10 -11 -11 -11 -10 -11 -10 -10 -9 -9 -9 -8 -8 -8 -8 -8 -8 -8 -8 -8
-7 -7 -7 -8 -9 -9 -8 -9 -11 -12 -12 -12 -12 -12 -12 -12 -13 -13 -12 -12 -12 -12 -12 -12 -11 -11 -11 -11 -11 -11 -10 -11 -10 -10 -9 -9 -9 -8 -8 -8 -8 -8 -8 -8 -8
-7 -8 -9 -9 -9 -9 -9 -10 -11 -12 -13 -13 -13 -12 -12 -12 -12 -12 -13 -12 -13 -13 -12 -12 -13 -11 -10 -10 -11 -11 -11 -11 -10 -10 -9 -9 -9 -9 -9 -9 -8 -8 -9 -8 -9
-8 -9 -10 -9 -9 -9 -9 -10 -11 -12 -12 -13 -13 -13 -13 -13 -12 -12 -12 -13 -12 -13 -13 -12 -12 -11 -11 -10 -10 -11 -11 -10 -10 -10 -10 -9 -9 -9 -9 -9 -9 -9 -9 -9 -9
-9 -10 -10 -10 -9 -10 -10 -10 -12 -13 -13 -14 -13 -13 -13 -13 -13 -13 -12 -13 -13 -12 -11 -12 -12 -11 -11 -11 -10 -11 -11 -10 -11 -11 -10 -10 -9 -9 -9 -9 -9 -9 -9 -9 -9
-10 -10 -11 -10 -10 -10 -10 -11 -12 -13 -13 -13 -13 -13 -13 -13 -13 -12 -12 -12 -13 -13 -13 -12 -12 -12 -11 -11 -11 -10 -11 -11 -10 -11 -11 -9 -9 -9 -9 -9 -9 -9 -10 -9 -8
-11 -11 -11 -11 -11 -11 -11 -12 -14 -13 -13 -13 -12 -12 -13 -13 -12 -12 -13 -13 -13 -12 -13 -12 -12 -12 -11 -11 -11 -11 -11 -11 -11 -10 -10 -10 -9 -9 -10 -10 -9 -9 -9 -9 -8
Height
5936 5936 5936 5935 5936 5935 5936 5936 5936 5936 5936 5936 5935 5936 5937 5936 5936 5936 5936 5936 5935 5934 5934 5934 5932 5929 5932 5932 5933 5930 5927 5926 5927 5930 5930 5931 5931 5930 5926 5923 5922 5919 5915 5914 5911
5933 5933 5933 5933 5933 5932 5932 5932 5932 5933 5934 5934 5934 5933 5934 5934 5934 5934 5935 5934 5934 5934 5933 5933 5931 5931 5931 5930 5929 5926 5924 5925 5927 5928 5932 5931 5932 5929 5928 5925 5924 5922 5917 5916 5915
5929 5929 5929 5929 5929 5929 5929 5928 5928 5928 5928 5930 5930 5930 5930 5931 5932 5930 5931 5931 5931 5931 5931 5931 5931 5930 5930 5929 5927 5923 5923 5925 5928 5926 5930 5933 5931 5928 5926 5925 5925 5924 5921 5918 5915
5924 5923 5923 5923 5923 5923 5923 5923 5922 5922 5923 5923 5923 5925 5926 5926 5930 5926 5927 5927 5927 5928 5928 5927 5927 5929 5927 5926 5921 5923 5919 5920 5922 5924 5928 5929 5929 5927 5925 5925 5926 5925 5921 5919 5916
5917 5916 5916 5916 5917 5917 5916 5916 5916 5915 5916 5917 5917 5917 5918 5921 5923 5922 5921 5923 5923 5923 5924 5924 5924 5924 5924 5921 5919 5922 5918 5916 5918 5922 5925 5925 5926 5925 5924 5924 5925 5925 5920 5918 5917
5915 5914 5913 5912 5911 5910 5910 5909 5909 5908 5908 5907 5907 5909 5910 5914 5913 5915 5917 5916 5918 5918 5917 5919 5921 5919 5919 5918 5918 5919 5919 5917 5916 5919 5922 5924 5924 5922 5921 5920 5922 5922 5921 5917 5916
5912 5911 5910 5909 5908 5907 5906 5905 5903 5902 5902 5901 5900 5899 5901 5907 5902 5902 5908 5910 5912 5911 5912 5912 5912 5910 5914 5910 5914 5915 5917 5920 5920 5921 5921 5922 5920 5917 5919 5918 5918 5921 5922 5917 5915
5908 5907 5906 5905 5904 5903 5901 5900 5898 5897 5895 5893 5893 5892 5894 5895 5890 5894 5900 5901 5900 5903 5905 5906 5905 5903 5906 5908 5910 5911 5915 5918 5918 5919 5920 5918 5917 5916 5916 5914 5915 5919 5918 5916 5915
5904 5903 5902 5901 5899 5898 5896 5895 5892 5891 5889 5887 5886 5884 5885 5886 5885 5886 5886 5890 5888 5891 5895 5896 5896 5899 5900 5902 5906 5907 5911 5912 5915 5914 5914 5913 5909 5914 5913 5910 5912 5914 5916 5915 5914
5900 5898 5896 5895 5893 5892 5889 5887 5885 5884 5881 5878 5876 5875 5874 5874 5875 5872 5870 5871 5877 5879 5882 5885 5888 5891 5893 5894 5900 5904 5906 5907 5909 5911 5909 5905 5909 5915 5911 5908 5909 5908 5910 5911 5911
5895 5893 5891 5888 5886 5884 5883 5880 5878 5875 5872 5869 5867 5864 5861 5860 5863 5862 5859 5858 5862 5865 5869 5875 5876 5883 5889 5891 5892 5895 5896 5899 5902 5903 5899 5900 5905 5905 5904 5904 5904 5903 5904 5906 5908
5888 5887 5884 5882 5879 5877 5875 5871 5868 5867 5867 5857 5851 5848 5847 5843 5843 5847 5847 5844 5848 5852 5860 5863 5867 5876 5880 5883 5886 5889 5891 5894 5895 5895 5893 5896 5898 5901 5902 5903 5903 5900 5901 5901 5905
5882 5880 5877 5873 5871 5869 5866 5862 5857 5854 5849 5843 5839 5835 5831 5825 5825 5830 5830 5834 5836 5842 5848 5853 5867 5870 5869 5873 5877 5881 5885 5888 5890 5890 5888 5890 5890 5894 5897 5897 5900 5900 5898 5898 5901
5875 5873 5871 5866 5866 5861 5858 5853 5848 5843 5838 5830 5820 5814 5809 5806 5804 5810 5817 5822 5826 5832 5842 5845 5856 5859 5863 5864 5869 5871 5878 5882 5884 5884 5883 5885 5880 5886 5889 5890 5894 5893 5893 5894 5895
5867 5864 5863 5858 5855 5852 5849 5843 5837 5831 5826 5818 5809 5804 5800 5799 5800 5798 5809 5813 5817 5827 5832 5837 5845 5850 5855 5860 5863 5867 5872 5875 5877 5877 5877 5880 5877 5881 5884 5885 5885 5887 5888 5889 5889
5859 5856 5852 5851 5845 5843 5838 5833 5827 5822 5814 5806 5803 5801 5799 5798 5796 5795 5795 5805 5815 5820 5824 5831 5838 5843 5847 5853 5857 5862 5864 5867 5870 5870 5867 5874 5874 5878 5877 5879 5879 5882 5883 5884 5887
5850 5848 5844 5842 5838 5833 5829 5823 5818 5809 5805 5803 5803 5803 5794 5796 5792 5790 5795 5800 5808 5814 5817 5823 5829 5835 5841 5845 5849 5853 5856 5859 5861 5861 5858 5868 5867 5871 5871 5872 5874 5877 5878 5879 5881
5842 5839 5837 5833 5829 5824 5819 5815 5808 5802 5799 5798 5800 5798 5793 5794 5793 5790 5797 5802 5808 5813 5817 5819 5821 5828 5835 5837 5843 5847 5851 5853 5853 5855 5855 5860 5859 5864 5864 5865 5867 5870 5871 5873 5876
5834 5830 5827 5825 5821 5816 5812 5807 5801 5796 5795 5794 5794 5794 5791 5792 5792 5791 5793 5800 5805 5810 5813 5814 5812 5822 5826 5834 5836 5840 5842 5849 5849 5850 5849 5853 5856 5856 5859 5861 5863 5865 5865 5867 5870
5826 5821 5818 5815 5812 5808 5804 5800 5795 5790 5790 5791 5790 5792 5790 5790 5790 5791 5794 5795 5799 5800 5798 5804 5802 5811 5818 5826 5830 5834 5841 5843 5843 5844 5844 5847 5851 5851 5853 5857 5858 5860 5862 5867 5869
5818 5814 5810 5807 5803 5800 5797 5793 5789 5785 5784 5785 5786 5785 5785 5785 5787 5789 5791 5792 5793 5794 5796 5797 5799 5806 5810 5813 5820 5826 5824 5835 5838 5840 5840 5843 5848 5847 5851 5853 5855 5858 5860 5861 5863
5809 5807 5804 5801 5798 5794 5790 5785 5783 5779 5778 5779 5779 5780 5780 5781 5783 5784 5784 5787 5788 5791 5793 5791 5795 5798 5804 5809 5814 5821 5825 5828 5830 5834 5837 5839 5842 5844 5846 5847 5850 5851 5852 5854 5857
5800 5798 5795 5791 5788 5786 5783 5778 5776 5774 5771 5771 5772 5775 5776 5777 5780 5781 5781 5783 5783 5784 5786 5789 5793 5792 5797 5807 5809 5809 5816 5817 5823 5824 5830 5834 5838 5838 5841 5842 5840 5841 5842 5842 5846
5792 5790 5787 5782 5781 5778 5775 5772 5769 5767 5766 5765 5765 5768 5771 5773 5774 5777 5777 5781 5780 5779 5781 5787 5790 5791 5794 5799 5801 5805 5807 5814 5817 5818 5822 5827 5833 5834 5833 5835 5836 5836 5838 5835 5840
5783 5783 5778 5775 5772 5769 5768 5766 5764 5763 5763 5761 5761 5764 5764 5765 5768 5769 5771 5776 5777 5778 5778 5777 5781 5784 5788 5793 5795 5799 5802 5805 5801 5809 5813 5818 5823 5826 5827 5826 5828 5830 5834 5836 5837
5775 5774 5772 5768 5765 5763 5760 5760 5758 5757 5756 5757 5757 5757 5759 5759 5757 5761 5763 5767 5769 5768 5767 5770 5775 5780 5785 5789 5793 5796 5798 5797 5799 5800 5806 5813 5817 5816 5818 5820 5822 5824 5826 5831 5830
5766 5766 5763 5761 5758 5756 5754 5754 5753 5753 5752 5752 5750 5753 5753 5754 5752 5754 5755 5759 5764 5767 5767 5768 5769 5773 5781 5786 5788 5790 5792 5792 5792 5797 5803 5807 5810 5806 5810 5816 5817 5817 5816 5819 5820
Wind_Speed
14 14 15 15 16 16 15 15 15 15 14 13 13 13 12 12 12 11 10 12 15 13 16 17 18 15 11 14 11 11 18 15 16 18 23 26 23 21 17 22 21 24 25 25 25
20 20 20 20 21 21 21 22 22 20 19 19 19 18 17 16 15 15 14 12 12 14 16 19 21 20 16 14 9 11 16 13 12 10 19 24 18 20 23 16 17 21 23 24 24
25 26 26 26 27 27 27 27 27 28 27 25 23 23 23 22 18 20 17 18 16 16 16 19 20 21 19 22 18 17 16 13 11 10 17 20 15 15 21 18 17 15 21 23 25
26 26 27 28 29 30 31 32 32 32 32 32 32 29 27 27 22 24 22 22 20 19 17 20 24 23 25 25 28 16 20 15 12 7 13 15 9 18 17 16 16 18 20 21 23
23 23 23 23 24 25 27 28 30 32 34 36 37 37 36 33 27 28 28 25 24 23 22 22 22 27 29 34 32 28 21 22 23 23 13 15 7 16 21 14 17 10 16 19 20
9 11 12 14 15 15 16 17 20 23 28 33 36 37 39 39 39 36 30 31 28 28 27 25 20 26 32 35 30 28 25 13 22 24 20 14 13 16 22 18 16 17 14 14 23
12 14 15 16 17 19 22 24 27 28 28 30 29 29 34 32 40 41 36 36 35 31 28 29 26 32 29 36 30 31 25 10 5 10 13 18 16 15 22 21 20 14 10 15 18
14 15 18 17 18 20 21 22 24 25 28 32 33 33 30 30 38 40 38 38 40 36 34 31 33 35 32 30 27 31 19 6 16 13 12 14 10 13 24 16 21 16 11 10 15
18 19 21 22 23 23 25 26 28 28 30 33 33 35 34 35 36 38 40 39 44 41 35 38 35 36 34 30 27 29 16 15 16 11 10 11 6 15 22 19 21 23 15 16 14
22 23 24 25 27 28 31 30 33 33 35 36 36 36 38 37 36 42 47 46 44 46 41 38 38 38 36 35 30 24 18 25 24 16 15 15 21 18 20 19 20 23 21 19 14
27 27 26 28 30 30 32 34 35 36 37 40 40 36 35 41 40 43 48 52 46 46 50 40 38 40 35 32 32 27 25 32 32 25 12 9 13 19 22 20 20 25 25 25 15
28 29 29 32 31 31 32 35 38 39 36 39 42 42 39 40 44 41 47 55 54 53 46 44 43 32 27 30 31 30 31 34 36 24 20 19 23 21 21 20 22 31 30 26 19
27 27 28 29 30 33 32 38 40 41 44 46 45 48 42 42 43 39 45 50 51 52 46 42 38 24 26 25 28 29 31 33 41 32 28 25 31 33 34 33 30 29 29 27 22
28 27 24 29 32 34 34 41 43 44 46 50 47 36 35 39 45 35 39 45 50 51 38 40 35 33 29 25 24 27 23 19 24 29 39 33 38 39 39 39 35 29 20 24 22
26 27 28 32 35 37 40 44 43 46 44 36 33 33 27 24 30 32 34 42 42 43 42 39 35 37 33 29 24 26 14 12 16 25 32 38 45 29 37 30 31 25 23 25 24
28 30 32 33 37 38 40 44 44 42 35 26 25 14 11 11 9 19 35 44 38 38 32 33 35 35 28 27 23 16 18 22 25 32 36 27 32 14 13 20 32 26 21 21 22
31 31 32 34 38 41 42 44 42 42 36 24 15 8 9 9 8 4 31 43 41 37 35 32 33 29 28 32 28 23 21 26 32 36 39 26 29 10 8 20 25 21 19 21 25
31 33 36 37 39 41 43 41 41 39 29 15 14 14 12 17 8 12 16 35 40 37 35 33 35 28 36 34 29 26 25 23 29 34 32 18 24 15 10 23 22 22 17 23 25
35 35 37 37 39 39 41 39 37 30 21 9 17 24 14 13 6 16 11 13 11 15 39 38 36 28 26 35 32 33 29 23 21 31 30 26 22 16 9 19 20 25 25 27 24
34 35 37 38 37 38 38 37 33 23 12 13 17 31 24 21 14 15 9 15 21 29 30 40 45 32 21 29 37 31 27 26 28 31 32 29 21 14 9 16 21 21 28 31 29
34 34 36 36 35 34 33 33 27 20 15 15 24 31 33 30 18 18 26 17 23 27 31 28 39 34 30 30 32 32 38 29 30 27 29 25 19 18 15 18 19 20 27 25 26
34 33 33 30 32 31 31 30 22 16 20 21 24 34 39 35 25 19 23 29 28 32 25 27 33 32 40 34 25 32 29 30 29 33 29 28 21 14 15 20 23 19 18 22 23
34 34 30 31 32 30 29 27 22 23 21 26 27 35 39 36 32 27 23 24 24 29 38 37 24 26 24 29 26 28 33 34 34 33 27 31 30 29 26 22 25 31 33 33 31
35 30 24 29 29 28 28 28 25 22 20 22 29 31 35 31 33 32 32 27 29 33 28 31 33 29 20 28 30 31 37 29 32 38 35 22 22 35 34 32 33 33 33 34 37
32 26 25 27 29 27 29 27 21 19 19 21 25 23 25 27 31 34 38 32 31 34 38 41 37 35 20 27 27 35 36 32 34 38 35 31 29 32 37 38 37 31 29 32 34
29 24 24 25 26 27 28 24 21 19 20 19 23 20 25 23 30 32 36 36 35 17 13 41 27 28 25 27 24 27 29 29 32 21 36 33 34 33 32 33 34 30 32 25 26
25 23 21 24 25 26 27 21 21 21 19 22 27 21 22 22 25 25 30 33 35 32 9 15 27 25 30 27 21 24 29 27 27 33 31 33 34 32 25 29 35 36 37 37 33
Wind_Direction
272 275 279 281 283 283 278 268 260 261 261 260 262 262 262 263 268 268 256 235 227 226 209 190 194 193 165 137 141 120 95 63 30 26 354 349 330 352 349 14 24 26 35 36 40
270 272 271 271 274 276 279 280 279 270 263 261 261 258 257 253 258 259 259 250 242 231 225 203 197 188 177 128 137 117 95 69 35 48 338 332 322 343 343 4 10 25 26 27 36
271 270 269 270 272 273 273 273 275 277 277 271 263 261 260 259 256 258 254 255 249 237 228 224 215 199 182 176 200 162 119 86 59 28 316 310 324 329 340 350 355 12 32 22 24
288 287 285 284 281 279 276 275 274 274 275 275 274 269 263 261 256 260 253 250 252 247 237 226 225 209 195 204 220 181 151 158 172 211 257 294 310 327 339 358 354 357 41 29 24
293 294 292 287 284 281 278 277 276 275 275 274 274 274 271 266 262 250 258 252 253 250 247 238 229 228 212 219 226 224 210 184 184 198 220 265 277 308 318 0 354 350 30 38 29
319 319 318 316 313 306 298 291 289 288 286 282 276 270 271 273 274 267 256 256 249 251 250 243 232 232 232 230 236 235 278 248 201 203 205 235 283 281 299 333 343 334 348 38 34
316 315 313 308 304 302 302 300 298 297 300 296 289 291 282 276 267 265 260 263 263 254 248 246 234 236 226 239 241 234 261 293 164 196 186 223 233 242 276 307 316 11 9 30 31
309 308 306 301 299 300 299 301 299 300 302 298 292 291 294 278 275 273 268 259 257 258 258 250 242 242 235 239 240 235 247 218 173 158 170 235 323 330 315 281 295 323 277 3 13
298 299 296 296 295 295 296 298 304 302 305 304 295 286 284 282 279 277 274 260 257 250 249 253 251 242 245 239 232 234 227 187 180 168 196 242 264 305 296 294 305 296 299 311 357
297 300 301 303 303 299 296 300 304 306 307 305 302 293 290 284 270 266 264 254 250 255 243 242 250 252 241 241 237 231 214 185 177 184 199 187 228 244 262 269 283 303 310 311 340
294 295 296 301 304 300 296 301 303 307 310 309 309 300 288 280 272 264 259 259 242 241 250 240 238 247 252 245 243 226 219 194 183 182 215 251 231 218 254 281 287 289 295 298 319
292 293 295 299 302 304 305 309 305 307 310 312 302 297 295 277 274 257 246 250 248 246 242 242 240 238 248 245 244 236 227 204 193 188 220 214 225 230 242 257 266 275 281 286 295
296 295 298 306 310 310 311 312 313 315 312 309 306 301 290 276 270 250 237 242 242 242 231 237 244 233 235 233 239 239 234 227 223 206 212 234 230 225 228 235 240 266 264 273 271
298 297 301 302 306 311 313 315 315 314 313 313 305 295 278 259 255 237 226 231 235 236 227 234 235 228 234 234 230 232 233 234 235 227 220 227 241 229 234 248 257 240 241 255 256
298 300 303 305 308 312 311 316 315 314 312 308 292 294 261 250 259 242 206 220 228 235 225 227 231 236 238 235 214 223 207 237 246 248 243 230 242 250 245 250 223 225 242 243 257
301 302 307 309 311 313 313 316 316 316 316 293 282 252 256 235 270 229 198 207 224 235 226 227 228 235 240 217 198 206 226 245 254 253 251 249 246 252 237 230 231 234 248 253 257
302 301 307 311 313 312 314 316 318 320 316 304 258 195 253 221 73 72 201 202 213 220 217 224 234 229 202 198 192 209 223 243 250 251 253 258 255 175 189 205 232 239 261 274 281
302 303 307 311 313 312 315 318 318 316 314 312 224 203 231 223 168 129 178 219 221 228 239 233 242 234 196 203 196 209 222 239 254 264 260 245 227 149 197 197 222 241 253 259 268
303 304 307 311 312 312 314 315 316 315 309 255 215 199 221 206 203 226 230 186 200 240 238 241 237 236 227 212 209 201 222 227 257 254 262 204 213 205 239 224 229 238 240 252 263
300 304 307 311 310 312 313 313 312 304 286 270 226 215 214 216 207 200 184 215 206 218 237 238 243 226 215 214 212 229 217 239 243 251 257 216 221 230 267 252 240 248 250 253 265
295 300 306 309 309 311 308 306 308 295 262 249 229 224 217 216 223 225 217 196 215 217 223 239 241 225 223 220 215 221 221 228 240 254 249 244 239 252 230 256 259 245 247 260 270
296 300 303 308 305 303 305 303 297 282 264 253 235 228 230 230 222 219 228 208 215 219 214 231 247 258 234 198 221 239 229 233 246 239 241 240 238 230 220 223 234 234 236 232 234
294 302 306 299 299 301 299 296 293 280 262 249 238 229 228 232 237 232 233 231 236 234 222 217 240 251 246 217 209 230 232 233 228 228 234 235 235 250 230 208 232 210 220 226 213
296 299 294 290 294 295 296 294 291 285 271 260 250 234 238 240 245 236 240 244 245 225 218 234 228 236 228 227 236 223 240 223 250 232 229 243 244 247 255 259 254 254 260 250 267
291 288 281 290 297 291 295 299 291 281 261 256 259 242 233 237 244 242 239 240 251 247 246 225 219 215 210 225 239 229 224 250 209 221 220 227 236 237 251 259 261 264 269 269 274
283 279 283 289 287 290 294 297 286 268 247 257 263 252 252 254 244 241 246 242 242 217 228 210 193 212 211 222 234 234 228 251 231 205 213 226 236 244 246 255 261 267 261 278 287
270 275 286 285 286 288 295 289 284 282 263 249 258 254 260 253 246 239 246 248 240 247 244 212 196 208 208 213 222 236 226 254 214 228 227 226 228 243 243 252 256 260 269 271 275